TimeCDT,TemperatureF,Dew PointF,Humidity,Sea Level PressureIn,VisibilityMPH,Wind Direction,Wind SpeedMPH,Gust SpeedMPH,PrecipitationIn,Events,Conditions,WindDirDegrees,DateUTC
12:27 AM,75.0,66.9,76,29.79,9.0,SE,9.2,-,N/A,,Overcast,140,2013-04-10 05:27:00
12:38 AM,75.0,66.9,76,29.79,9.0,South,8.1,-,N/A,,Overcast,180,2013-04-10 05:38:00
12:53 AM,75.0,66.9,76,29.77,9.0,South,6.9,-,N/A,,Overcast,170,2013-04-10 05:53:00
1:16 AM,75.0,66.0,73,29.79,9.0,South,6.9,-,N/A,,Overcast,170,2013-04-10 06:16:00
1:53 AM,75.0,64.9,71,29.76,10.0,South,10.4,-,N/A,,Mostly Cloudy,170,2013-04-10 06:53:00
2:53 AM,73.9,64.9,73,29.74,10.0,SSE,12.7,19.6,N/A,,Partly Cloudy,150,2013-04-10 07:53:00
3:53 AM,73.0,66.0,79,29.73,10.0,SSE,4.6,-,N/A,,Clear,150,2013-04-10 08:53:00
4:53 AM,70.0,64.9,84,29.72,9.0,Variable,4.6,-,N/A,,Scattered Clouds,0,2013-04-10 09:53:00
5:18 AM,71.1,66.0,84,29.75,9.0,Calm,Calm,-,N/A,,Mostly Cloudy,0,2013-04-10 10:18:00
5:26 AM,70.0,66.0,87,29.75,9.0,Variable,3.5,-,N/A,,Mostly Cloudy,0,2013-04-10 10:26:00
5:53 AM,71.1,66.0,84,29.75,9.0,Calm,Calm,-,N/A,,Overcast,0,2013-04-10 10:53:00
6:53 AM,70.0,66.0,87,29.76,9.0,SE,4.6,-,N/A,,Overcast,130,2013-04-10 11:53:00
7:53 AM,71.1,66.0,84,29.77,8.0,SE,6.9,-,N/A,,Scattered Clouds,140,2013-04-10 12:53:00
8:53 AM,73.9,66.0,76,29.75,9.0,SE,11.5,-,N/A,,Mostly Cloudy,130,2013-04-10 13:53:00
9:53 AM,73.9,66.0,76,29.75,9.0,South,6.9,-,N/A,,Overcast,170,2013-04-10 14:53:00
10:53 AM,75.0,68.0,79,29.75,9.0,West,6.9,-,0.00,,Overcast,260,2013-04-10 15:53:00
11:53 AM,66.9,59.0,76,29.75,10.0,West,8.1,-,N/A,,Mostly Cloudy,270,2013-04-10 16:53:00
12:53 PM,66.9,57.9,73,29.73,10.0,WSW,5.8,-,N/A,,Scattered Clouds,250,2013-04-10 17:53:00
1:53 PM,64.0,55.9,75,29.71,10.0,WSW,13.8,-,N/A,,Mostly Cloudy,250,2013-04-10 18:53:00
2:53 PM,53.1,50.0,89,29.75,10.0,West,17.3,-,0.03,,Overcast,270,2013-04-10 19:53:00
3:00 PM,52.0,50.0,93,29.74,5.0,West,17.3,-,0.01,Rain,Light Rain,260,2013-04-10 20:00:00
3:14 PM,51.1,48.0,89,29.75,10.0,West,12.7,19.6,0.01,Rain,Light Rain,270,2013-04-10 20:14:00
3:32 PM,50.0,46.9,89,29.75,5.0,WNW,18.4,27.6,0.01,Rain,Light Rain,290,2013-04-10 20:32:00
3:53 PM,46.9,44.1,90,29.71,9.0,NNE,8.1,17.3,0.02,Rain,Light Rain,20,2013-04-10 20:53:00
4:06 PM,48.0,45.0,89,29.73,1.5,North,3.5,-,0.05,Rain,Heavy Rain,350,2013-04-10 21:06:00
4:27 PM,46.0,45.0,96,29.75,0.5,West,9.2,17.3,0.24,Fog-Rain,Heavy Rain,280,2013-04-10 21:27:00
4:38 PM,46.9,45.0,93,29.77,2.0,WNW,10.4,19.6,0.27,Rain,Rain,290,2013-04-10 21:38:00
4:41 PM,46.0,44.1,93,29.75,3.0,NW,8.1,19.6,0.27,Rain,Rain,320,2013-04-10 21:41:00
4:53 PM,46.9,45.0,93,29.73,6.0,NW,8.1,-,0.27,Rain,Light Rain,310,2013-04-10 21:53:00
5:16 PM,48.0,46.0,93,29.75,3.0,Variable,6.9,-,0.01,Rain,Light Rain,0,2013-04-10 22:16:00
5:53 PM,48.0,45.0,89,29.75,10.0,West,9.2,-,0.01,,Overcast,280,2013-04-10 22:53:00
6:35 PM,46.9,44.1,90,29.79,10.0,West,10.4,-,N/A,,Overcast,260,2013-04-10 23:35:00
6:53 PM,46.9,43.0,86,29.78,10.0,WNW,12.7,-,N/A,,Overcast,290,2013-04-10 23:53:00
7:14 PM,46.0,42.1,86,29.79,10.0,WNW,9.2,18.4,N/A,,Overcast,290,2013-04-11 00:14:00
7:53 PM,45.0,39.9,82,29.81,10.0,WNW,9.2,-,N/A,,Overcast,300,2013-04-11 00:53:00
8:09 PM,44.1,39.9,85,29.82,10.0,WNW,9.2,-,N/A,,Overcast,290,2013-04-11 01:09:00
8:44 PM,44.1,39.9,85,29.84,10.0,WNW,13.8,20.7,N/A,,Overcast,300,2013-04-11 01:44:00
8:53 PM,43.0,39.0,86,29.83,10.0,WNW,10.4,-,N/A,,Overcast,300,2013-04-11 01:53:00
9:26 PM,43.0,39.0,86,29.85,10.0,NW,9.2,-,N/A,,Overcast,310,2013-04-11 02:26:00
9:53 PM,43.0,39.0,86,29.86,10.0,Calm,Calm,-,N/A,,Overcast,0,2013-04-11 02:53:00
10:31 PM,42.1,39.0,89,29.89,10.0,WSW,3.5,-,N/A,,Scattered Clouds,250,2013-04-11 03:31:00
10:38 PM,43.0,39.0,86,29.88,10.0,West,3.5,-,N/A,,Mostly Cloudy,270,2013-04-11 03:38:00
10:53 PM,43.0,39.9,89,29.88,10.0,Calm,Calm,-,N/A,,Overcast,0,2013-04-11 03:53:00
11:53 PM,43.0,39.9,89,29.88,10.0,NW,3.5,-,N/A,,Overcast,310,2013-04-11 04:53:00